Broomfield, CO

2:18 AM MDT on May 25, 2017 (GMT -0600)
Jeffco

Weather History for KBJC - August, 2013

Change the Weather History Date:

Tuesday, August 13, 2013

  Actual Average Record
Temperature  
Mean Temperature 65 °F -  
Max Temperature 75 °F 83 °F 96 °F (2007)
Min Temperature 55 °F 59 °F 48 °F (1990)
Growing Degree Days 15 (Base 50)    
Moisture  
Dew Point 47 °F    
Average Humidity 58    
Maximum Humidity 82    
Minimum Humidity 27    
Precipitation  
Precipitation 0.00 in - - ()
Sea Level Pressure  
Sea Level Pressure 30.25 in    
Wind  
Wind Speed 11 mph (West)    
Max Wind Speed 21 mph    
Max Gust Speed 29 mph    
Visibility 11 miles    
Events Rain    
Averages and records for this station are not official NWS values.
T = Trace of Precipitation, MM = Missing Value Source: NWS Daily Summary

Daily Weather History Graph

Daily Weather History Graph

Search for Another Location

Airport or City:

Trip Planner

Search our weather history database for the weather conditions in past years. The results will help you decide how hot, cold, wet, or windy it might be!

Date:

Astronomy

Aug. 13, 2013 Rise Set
Actual Time 6:10 AM MDT 7:59 PM MDT
Civil Twilight 5:41 AM MDT 8:28 PM MDT
Nautical Twilight 5:06 AM MDT 9:03 PM MDT
Astronomical Twilight 4:28 AM MDT 9:41 PM MDT
Moon 1:07 PM MDT (8/13) 11:36 PM MDT (8/13)
Length of Visible Light 14h 46m
Length of Day
13h 48m
Waxing Crescent, 42% of the Moon is Illuminated
Aug 13
Waxing Crescent
Aug 14
First Quarter
Aug 20
Full
Aug 28
Last Quarter
Sep 5
New

Hourly Weather History & Observations

Time (MDT) Temp. Dew Point Humidity Pressure Visibility Wind Dir Wind Speed Gust Speed Precip Events Conditions
12:15 AM 59.0 °F 50.0 °F 72% 30.29 in 10.0 mi SW 19.6 mph 25.3 mph N/A Rain Light Rain
12:35 AM 59.0 °F 50.0 °F 72% 30.27 in 10.0 mi SSW 16.1 mph 23.0 mph N/A   Scattered Clouds
12:55 AM 59.0 °F 50.0 °F 72% 30.26 in 10.0 mi SSW 15.0 mph 23.0 mph N/A   Scattered Clouds
1:14 AM 60.8 °F 50.0 °F 68% 30.26 in 10.0 mi SW 15.0 mph 18.4 mph N/A   Clear
1:35 AM 60.8 °F 50.0 °F 68% 30.25 in 10.0 mi SSW 15.0 mph - N/A   Clear
1:55 AM 60.8 °F 50.0 °F 68% 30.25 in 10.0 mi SW 12.7 mph - N/A   Clear
2:15 AM 60.8 °F 48.2 °F 63% 30.23 in 10.0 mi SW 10.4 mph - N/A   Clear
2:35 AM 60.8 °F 48.2 °F 63% 30.23 in 10.0 mi SSW 8.1 mph - N/A   Clear
2:55 AM 60.8 °F 46.4 °F 59% 30.22 in 10.0 mi SW 8.1 mph - N/A   Clear
3:15 AM 59.0 °F 46.4 °F 63% 30.22 in 10.0 mi SW 6.9 mph - N/A   Clear
3:35 AM 59.0 °F 46.4 °F 63% 30.21 in 10.0 mi SSW 5.8 mph - N/A   Clear
3:55 AM 59.0 °F 46.4 °F 63% 30.20 in 10.0 mi SW 4.6 mph - N/A   Clear
4:15 AM 59.0 °F 46.4 °F 63% 30.20 in 10.0 mi West 8.1 mph - N/A   Clear
4:35 AM 57.2 °F 46.4 °F 67% 30.20 in 10.0 mi Calm Calm - N/A   Clear
4:54 AM 55.4 °F 48.2 °F 77% 30.21 in 10.0 mi NNE 5.8 mph - N/A   Clear
5:15 AM 55.4 °F 48.2 °F 77% 30.22 in 10.0 mi North 5.8 mph - N/A   Clear
5:35 AM 55.4 °F 46.4 °F 72% 30.22 in 10.0 mi WNW 6.9 mph - N/A   Clear
5:48 AM 55.4 °F 48.2 °F 77% 30.22 in 40.0 mi NW 6.9 mph - N/A   Mostly Cloudy
5:55 AM 55.4 °F 48.2 °F 77% 30.22 in 10.0 mi NW 5.8 mph - N/A   Clear
6:45 AM 55.4 °F 50.0 °F 82% 30.24 in 40.0 mi NW 5.8 mph - N/A   Scattered Clouds
7:47 AM 59.0 °F 50.0 °F 72% 30.27 in 40.0 mi NW 15.0 mph - N/A   Scattered Clouds
8:47 AM 62.6 °F 50.0 °F 63% 30.30 in 25.0 mi North 9.2 mph - N/A   Mostly Cloudy
9:50 AM 66.2 °F 53.6 °F 64% 30.32 in 25.0 mi NNW 8.1 mph - N/A   Mostly Cloudy
10:50 AM 69.8 °F 50.0 °F 49% 30.32 in 25.0 mi NW 4.6 mph - N/A   Mostly Cloudy
11:46 AM 73.4 °F 46.4 °F 38% 30.32 in 30.0 mi Variable 4.6 mph - N/A   Mostly Cloudy
12:47 PM 73.4 °F 46.4 °F 38% 30.30 in 35.0 mi ESE 4.6 mph - N/A   Mostly Cloudy
1:50 PM 75.2 °F 39.2 °F 27% 30.29 in 35.0 mi Calm Calm - N/A   Mostly Cloudy
2:49 PM 75.2 °F 44.6 °F 34% 30.28 in 30.0 mi WNW 15.0 mph 19.6 mph N/A   Overcast
3:47 PM 69.8 °F 46.4 °F 43% 30.28 in 30.0 mi West 20.7 mph 28.8 mph N/A   Mostly Cloudy
4:46 PM 68.0 °F 44.6 °F 43% 30.25 in 30.0 mi SW 10.4 mph - N/A   Mostly Cloudy
5:47 PM 75.2 °F 41.0 °F 29% 30.25 in 30.0 mi West 10.4 mph - N/A   Mostly Cloudy
7:53 PM 69.8 °F 44.6 °F 40% 30.24 in 30.0 mi Calm Calm - N/A   Mostly Cloudy
8:55 PM 68.0 °F 44.6 °F 43% 30.25 in 20.0 mi Calm Calm - N/A   Mostly Cloudy
9:48 PM 66.2 °F 46.4 °F 49% 30.28 in 20.0 mi WNW 10.4 mph - N/A   Mostly Cloudy
11:15 PM 64.4 °F 42.8 °F 45% 30.26 in 10.0 mi WSW 4.6 mph - N/A   Clear
11:34 PM 64.4 °F 42.8 °F 45% 30.26 in 10.0 mi Calm Calm - N/A   Clear
11:55 PM 64.4 °F 44.6 °F 49% 30.26 in 10.0 mi West 4.6 mph - N/A   Clear